Погода в Приобье

Россия / Ханты-Мансийский автономный округ - Югра     62°32′14″N   65°37′41″E
темп.,
°C
ветер,
м/с
пор.,
м/с
влажн.,
%
обл.,
%
осадки,
мм/ч
давл.,
гПа
погр.,
м
21 июня, пн
пн2123:00+8с81480100 0.0 1016576
02:00+8ссв61368100 0.0 1018708
05:00+7ссз587420 0.0 1021548
08:00+10ссз455563 0.0 1021890
11:00+13сз55425 0.0 10211605
14:00+15сз45368 0.0 10201949
17:00+17ссз553598 0.0 10192144
20:00+15ссв34425 0.0 1019418
22 июня, вт
вт2223:00+9всв335914 0.0 101916
02:00+7с006865 0.0 101810
05:00+10всв0160100 0.0 101921
08:00+14ссз2345100 0.0 1018500
11:00+17с5539100 0.0 10172258
14:00+16с564197 0.0 10181776
17:00+17с7841100 0.0 10182210
20:00+14св575022 0.0 10191115
23 июня, ср
ср2323:00+9св33665 0.0 102134
02:00+7с227453 0.0 102113
05:00+8ссз3569100 0.0 1022148
08:00+13ссз574919 0.0 10211114
11:00+17ссз783912 0.0 10201927
14:00+19с67291 0.0 10182129
17:00+20с67281 0.0 10172214
20:00+18с46390 0.0 1017220
24 июня, чт
чт2423:00+12ссв22505 0.0 101613
02:00+8всв1170100 0.0 101610
05:00+12ссз225765 0.0 101631
08:00+16св344399 0.0 1015586
11:00+20ссв343345 0.0 10151441
14:00+22с2326100 0.0 10141797
17:00+23с1224100 0.0 10141694
20:00+18св4640100 0.0 101470
25 июня, пт
пт2523:00+16св1147100 0.0 101312
02:00+16юв2244100 0.0 101217
05:00+16ююв355690 0.0 1011117
08:00+19ю4546100 0.0 1010482
11:00+23ююв5536100 0.0 10091187
14:00+20юз7847100 0.0 1008542
17:00+19ю4855100 0.1 1007432
20:00+17ю5106996 0.1 1005388